Showing default

ICEYE-X34, 58294

Orbit data source: Space-Track

ICEYE-X34, 58294 is a payload satellite owned by ICEYE US (US) in SSO that was launched on Sat, 11 Nov 2023 UTC via an FALCON 9 launch vehicle from the Air Force Western Test Range (AFWTR). Payload-class satellites include a variety of spacecraft equipped with specific instruments for various scientific and technological missions. These include communications satellites like Starlink; space stations such as the ISS; scientific satellites like the Hubble; Earth observation satellites from companies like Planet Labs, Umbra, and HawkEye 360; GPS; miniature CubeSats for education and research; and military/defense satellites.

Loading next visibility...
Identifier
58294, 2023-174AQ
Orbit
SSO
Country
Flag of USUS
Related business
Manufacturer
ICEYE
Mission
Operational Commercial Radar Imaging
Bus & Motor
ICEYE, Unknown motor
Mass
90 kg wet, 89 kg dry
Launch date (UTC)
2023-11-11 (3 years ago)
Launch vehicle
FALCON 9
Launch site
Air Force Western Test Range (AFWTR)
Object type
Payload
Rocket body
Debris
Shape & HBR
Box + 1 Pan, 1.6 m
Radar Cross Section
0.825 m², Medium (>0.1 m² and < 1m²)

Expand to show TLE details & history
Last TLE update: 8 hours ago

TLE from 8 hours ago
0 ICEYE-X34
1 58294U 23174AQ  26176.54721201  .00114835  00000-0  10993-2 0  9995
2 58294  97.3880 268.1544 0003812 164.6011 195.5366 15.66308935147056
Epoch: 2026-06-25T13:07Z
TLE epoch observation values (Epoch: 2026-06-25T13:07:59.117Z)
Latitude
-0.00002°
Longitude
157.46957°
Altitude
375.109 km
Speed
7.683 km/s
True Right ascension
17h 52m 37s
True Declination
0° 00' 00"
Sunlit
Object was in full shadow at epoch
Visualization orbit readout
Latitude
Unknown
Longitude
Unknown
Altitude
Unknown
Speed
Unknown
Apparent Right ascension
Unknown
Apparent Declination
Unknown
Sunlit
N/A
Visualization observer readout
Local Sidereal Time
08:29:06
Azimuth
Unknown
Elevation
Unknown
Doppler factor
Unknown
Orbital elements
Apogee altitude
368.952 km
Perigee altitude
363.809 km
Semi-major axis
6,744.518 km
Eccentricity
0.00038
Inclination
97.388°
RAAN
268.1544°
Arg. of periapsis
164.6011°
True anomaly
195.5249°
Mean anomaly
195.5366°
Eccentric anomaly
195.53075°
Mean motion
3.91847 °/min
Orbital period
91.87 mins
BSTAR
0.0010993
Loading maneuver chart data...
Computing Atmospheric mass density...

Documentation

Showing up to 5 results
|